Regional Weather Roundup
Issued by NWS

Home | Current Version | Previous Version | Graphics & Text | Print | Product List | Glossary On
Versions: 1 2 3 4 5 6 7 8 9 10 11 12 13 14 15 16 17 18 19 20 21 22 23 24 25 26 27 28 29 30 31 32 33 34 35 36 37 38 39 40 41 42 43 44 45 46 47 48 49 50
000
ASUS43 KFSD 211210
RWRSD

WEATHER ROUNDUP FOR SOUTH DAKOTA
NATIONAL WEATHER SERVICE SIOUX FALLS SD
600 AM CST SUN JAN 21 2018

NOTE: "FAIR" INDICATES FEW OR NO CLOUDS BELOW 12,000 FEET WITH NO
SIGNIFICANT WEATHER AND/OR OBSTRUCTIONS TO VISIBILITY.


SDZ001>005-009-010-012>017-211300-
NORTHWEST AND NORTH CENTRAL SOUTH DAKOTA

CITY           SKY/WX    TMP DP  RH WIND       PRES   REMARKS
BUFFALO          N/A     26  20  77 CALM      29.90S
FAITH            N/A     29  23  78 NW7       29.96F WCI  22
MOBRIDGE       CLOUDY    30  24  78 CALM      29.96R
$$

SDZ012>016-024>037-041>051-057-063-072>074-211300-
SOUTHWEST AND SOUTH CENTRAL SOUTH DAKOTA

CITY           SKY/WX    TMP DP  RH WIND       PRES   REMARKS
RAPID CTY ARPT CLOUDY    28  25  88 W3        29.95S
PIERRE         CLOUDY    32  32 100 NW6       29.96F WCI  26
CUSTER         LGT SNOW  22  17  81 N5        29.87R WCI  16
ELLSWORTH AFB  CLOUDY    31  26  82 N5        29.94S WCI  26
PHILIP         CLOUDY    32  31  96 NW5       29.96F WCI  27
PINE RIDGE     LGT SNOW  30  29  96 N7        29.94R FOG     WCI  23
SPEARFISH        N/A     25  19  80 W5        29.95R WCI  19
WINNER         LGT SNOW  34  32  92 N15       29.95R FOG     WCI  24
$$

SDZ004>011-016>023-039-040-211300-
NORTHEAST SOUTH DAKOTA

CITY           SKY/WX    TMP DP  RH WIND       PRES   REMARKS
ABERDEEN       PTCLDY    29  25  85 N7        29.99R WCI  22
WATERTOWN      CLOUDY    31  29  92 N3        29.93F
BROOKINGS      CLOUDY    36  29  75 N7        29.93S
SISSETON         N/A     32  26  78 NW9       29.97R WCI  24
$$

SDZ017-020-022-023-036>040-048>070-211300-
SOUTHEAST SOUTH DAKOTA

CITY           SKY/WX    TMP DP  RH WIND       PRES   REMARKS
SIOUX FALLS    CLOUDY    32  28  85 N10       29.92R WCI  24
HURON          LGT RAIN  35  31  85 N9        29.96R WCI  28
CHAMBERLAIN    CLOUDY    36  36  98 N12G18    29.97R
MITCHELL       CLOUDY    36  31  82 N9        29.95R
YANKTON        CLOUDY    29  25  85 CALM      29.91R
$$

ABBREVIATIONS USED IN REMARKS
   TC - TEMPERATURE IN CELSIUS
  WCI - WIND CHILL INDEX
   HX - HEAT INDEX
  VSB - VISIBILITY





USA.gov is the U.S. government's official web portal to all federal, state and local government web resources and services.